Weather History for KARM - December, 2013

Change the Weather History Date:

Saturday, December 21, 2013

  Actual Average (KPSX) Record (KPSX)
Temperature  
Mean Temperature 62 °F -  
Max Temperature 73 °F 64 °F 77 °F (1949)
Min Temperature 50 °F 45 °F 22 °F (1973)
Degree Days  
Heating Degree Days 4    
Growing Degree Days 12 (Base 50)    
Moisture  
Dew Point 63 °F    
Average Humidity 90    
Maximum Humidity 99    
Minimum Humidity 75    
Precipitation  
Precipitation 0.13 in - - ()
Sea Level Pressure  
Sea Level Pressure 29.70 in    
Wind  
Wind Speed 13 mph (South)    
Max Wind Speed 25 mph    
Max Gust Speed 38 mph    
Visibility 8 miles    
Events Rain , Thunderstorm    
Averages and records for this station are not official NWS values.
T = Trace of Precipitation, MM = Missing Value Source: NWS Daily Summary

Daily Weather History Graph

Daily Weather History Graph

Search for Another Location

Airport or City:

Trip Planner

Search our weather history database for the weather conditions in past years. The results will help you decide how hot, cold, wet, or windy it might be!

Date:

Astronomy

Dec. 21, 2013 Rise Set
Actual Time 7:14 AM CST 5:31 PM CST
Civil Twilight 6:48 AM CST 5:57 PM CST
Nautical Twilight 6:18 AM CST 6:26 PM CST
Astronomical Twilight 5:49 AM CST 6:56 PM CST
Moon 9:31 PM CST (12/21) 9:56 AM CST (12/21)
Length of Visible Light 11h 08m
Length of Day
10h 16m
Waning Gibbous, 84% of the Moon is Illuminated
Dec 21
Waning Gibbous
Dec 25
Last Quarter
Jan 1
New
Jan 7
First Quarter
Jan 15
Full

Hourly Weather History & Observations

Time (CST) Temp. Dew Point Humidity Pressure Visibility Wind Dir Wind Speed Gust Speed Precip Events Conditions
12:15 AM 72.9 °F 70.0 °F 91% 29.73 in 7.0 mi SSE 20.7 mph - N/A   Overcast
12:35 AM 72.7 °F 70.0 °F 91% 29.72 in 7.0 mi SSE 16.1 mph 26.5 mph N/A   Overcast
12:55 AM 72.9 °F 69.8 °F 90% 29.71 in 7.0 mi SSE 17.3 mph 24.2 mph N/A   Overcast
1:15 AM 72.7 °F 69.8 °F 91% 29.70 in 7.0 mi SSE 19.6 mph 23.0 mph N/A   Overcast
1:35 AM 72.9 °F 69.8 °F 90% 29.69 in 7.0 mi SSE 12.7 mph - N/A   Overcast
1:55 AM 72.9 °F 69.8 °F 90% 29.69 in 7.0 mi SSE 16.1 mph 21.9 mph N/A   Overcast
2:15 AM 72.9 °F 69.8 °F 90% 29.68 in 7.0 mi SSE 17.3 mph - N/A   Overcast
2:35 AM 72.9 °F 69.4 °F 89% 29.67 in 7.0 mi SSE 17.3 mph 25.3 mph N/A   Overcast
2:55 AM 72.9 °F 69.4 °F 89% 29.66 in 7.0 mi SSE 17.3 mph 26.5 mph N/A   Overcast
3:15 AM 72.7 °F 69.3 °F 89% 29.67 in 7.0 mi SSE 17.3 mph 23.0 mph N/A   Overcast
3:35 AM 72.7 °F 69.4 °F 90% 29.69 in 7.0 mi South 16.1 mph - N/A   Overcast
3:55 AM 72.5 °F 69.3 °F 90% 29.70 in 7.0 mi South 12.7 mph - N/A   Overcast
4:15 AM 72.1 °F 69.1 °F 90% 29.70 in 7.0 mi South 11.5 mph - N/A   Overcast
4:35 AM 71.8 °F 68.9 °F 91% 29.68 in 7.0 mi South 11.5 mph - N/A   Overcast
4:55 AM 71.6 °F 68.9 °F 91% 29.68 in 7.0 mi South 9.2 mph - N/A   Overcast
5:15 AM 71.6 °F 68.9 °F 91% 29.67 in 7.0 mi SSE 9.2 mph - N/A   Overcast
5:35 AM 71.6 °F 68.9 °F 91% 29.67 in 7.0 mi South 11.5 mph 16.1 mph N/A   Overcast
5:55 AM 71.6 °F 68.5 °F 90% 29.66 in 7.0 mi South 9.2 mph - N/A   Overcast
6:15 AM 71.4 °F 68.7 °F 91% 29.66 in 7.0 mi South 9.2 mph - N/A   Light Drizzle
6:35 AM 70.9 °F 68.5 °F 92% 29.66 in 7.0 mi SSE 10.4 mph - N/A   Light Drizzle
6:55 AM 71.1 °F 68.5 °F 92% 29.66 in 7.0 mi South 11.5 mph - N/A Rain Light Rain
7:15 AM 71.1 °F 68.7 °F 92% 29.67 in 7.0 mi South 9.2 mph - N/A   Light Drizzle
7:35 AM 70.7 °F 68.7 °F 93% 29.67 in 7.0 mi South 9.2 mph - N/A   Light Drizzle
7:55 AM 70.7 °F 68.9 °F 94% 29.67 in 5.0 mi South 11.5 mph - 0.03 in Rain Rain
8:15 AM 70.7 °F 68.9 °F 94% 29.67 in 4.0 mi South 10.4 mph - 0.01 in Rain Light Rain
8:35 AM 70.3 °F 68.9 °F 95% 29.66 in 2.5 mi South 11.5 mph - 0.08 in Rain , Thunderstorm Rain
8:55 AM 70.5 °F 69.1 °F 95% 29.66 in 4.0 mi South 12.7 mph 18.4 mph 0.09 in Rain Light Rain
9:15 AM 70.9 °F 69.1 °F 94% 29.66 in 5.0 mi South 16.1 mph 20.7 mph N/A Rain Light Rain
9:35 AM 70.9 °F 69.1 °F 94% 29.66 in 4.0 mi South 13.8 mph - N/A Rain Light Rain
9:55 AM 71.1 °F 69.3 °F 94% 29.64 in 5.0 mi SSE 15.0 mph - N/A   Scattered Clouds
10:15 AM 71.2 °F 69.3 °F 93% 29.63 in 5.0 mi South 17.3 mph 27.6 mph N/A   Scattered Clouds
10:35 AM 72.0 °F 69.3 °F 91% 29.62 in 5.0 mi SSE 20.7 mph 27.6 mph N/A   Scattered Clouds
10:55 AM 72.5 °F 69.8 °F 91% 29.62 in 5.0 mi South 20.7 mph 26.5 mph N/A   Mostly Cloudy
11:15 AM 72.7 °F 69.8 °F 91% 29.63 in 5.0 mi South 21.9 mph 26.5 mph N/A   Mostly Cloudy
11:35 AM 73.4 °F 69.8 °F 88% 29.62 in 5.0 mi South 19.6 mph 28.8 mph N/A   Overcast
11:55 AM 73.2 °F 69.8 °F 89% 29.62 in 5.0 mi South 24.2 mph 36.8 mph N/A   Overcast
12:15 PM 73.4 °F 69.4 °F 87% 29.63 in 5.0 mi SSW 25.3 mph 33.4 mph N/A   Overcast
12:35 PM 73.0 °F 69.1 °F 87% 29.65 in 5.0 mi SW 17.3 mph 28.8 mph N/A   Overcast
12:55 PM 72.5 °F 68.5 °F 87% 29.65 in 5.0 mi SW 21.9 mph 38.0 mph N/A   Drizzle
1:15 PM 71.6 °F 68.9 °F 91% 29.66 in 4.0 mi West 25.3 mph 31.1 mph N/A   Overcast
1:35 PM 61.9 °F 58.1 °F 87% 29.67 in 10.0 mi NW 10.4 mph 17.3 mph N/A   Overcast
1:55 PM 61.7 °F 56.5 °F 83% 29.66 in 10.0 mi NW 13.8 mph - N/A   Overcast
2:15 PM 62.6 °F 56.3 °F 80% 29.65 in 10.0 mi WNW 12.7 mph - N/A   Mostly Cloudy
2:35 PM 62.2 °F 56.1 °F 80% 29.66 in 10.0 mi NW 10.4 mph - N/A   Mostly Cloudy
2:55 PM 62.6 °F 56.1 °F 79% 29.66 in 10.0 mi NW 10.4 mph - N/A   Overcast
3:15 PM 62.6 °F 56.7 °F 81% 29.66 in 10.0 mi WNW 5.8 mph - N/A   Overcast
3:35 PM 62.6 °F 56.8 °F 81% 29.65 in 10.0 mi West 3.5 mph - N/A   Mostly Cloudy
3:55 PM 63.0 °F 56.5 °F 79% 29.66 in 10.0 mi WNW 4.6 mph - N/A   Scattered Clouds
4:15 PM 63.5 °F 55.6 °F 75% 29.67 in 10.0 mi WNW 4.6 mph - N/A   Clear
4:35 PM 62.8 °F 56.3 °F 79% 29.66 in 10.0 mi Calm Calm - N/A   Clear
4:55 PM 63.5 °F 55.9 °F 76% 29.67 in 10.0 mi Calm Calm - N/A   Clear
5:15 PM 63.1 °F 56.3 °F 78% 29.68 in 10.0 mi Calm Calm - N/A   Clear
5:35 PM 61.5 °F 56.3 °F 83% 29.68 in 10.0 mi Calm Calm - N/A   Clear
5:55 PM 59.0 °F 56.3 °F 91% 29.70 in 10.0 mi Calm Calm - N/A   Clear
6:15 PM 57.0 °F 55.2 °F 94% 29.70 in 10.0 mi Calm Calm - N/A   Clear
6:35 PM 55.2 °F 54.1 °F 96% 29.71 in 10.0 mi Calm Calm - N/A   Clear
6:55 PM 53.1 °F 52.2 °F 97% 29.72 in 10.0 mi SE 3.5 mph - N/A   Clear
7:15 PM 53.4 °F 52.5 °F 97% 29.74 in 10.0 mi SE 4.6 mph - N/A   Clear
7:35 PM 53.1 °F 52.5 °F 98% 29.74 in 10.0 mi ESE 3.5 mph - N/A   Clear
7:55 PM 52.3 °F 51.8 °F 98% 29.76 in 10.0 mi Calm Calm - N/A   Clear
8:15 PM 52.0 °F 51.3 °F 97% 29.76 in 10.0 mi Calm Calm - N/A   Clear
8:35 PM 50.2 °F 49.6 °F 98% 29.78 in 7.0 mi Calm Calm - N/A   Clear
8:55 PM 52.9 °F 52.5 °F 99% 29.79 in 10.0 mi Calm Calm - N/A   Clear
9:15 PM 50.5 °F 50.0 °F 98% 29.77 in 10.0 mi ENE 4.6 mph - N/A   Clear
9:35 PM 52.7 °F 52.0 °F 97% 29.80 in 10.0 mi Calm Calm - N/A   Clear
9:55 PM 53.1 °F 52.7 °F 99% 29.79 in 10.0 mi Calm Calm - N/A   Scattered Clouds
10:15 PM 53.8 °F 53.2 °F 98% 29.81 in 10.0 mi Calm Calm - N/A   Scattered Clouds
10:35 PM 55.8 °F 54.7 °F 96% 29.84 in 10.0 mi WSW 8.1 mph - N/A Rain Light Rain
10:55 PM 55.8 °F 54.5 °F 96% 29.82 in 10.0 mi Calm Calm - N/A   Scattered Clouds
11:15 PM 55.9 °F 54.5 °F 95% 29.84 in 10.0 mi Calm Calm - 0.01 in Rain Light Rain
11:35 PM 56.1 °F 54.5 °F 94% 29.87 in 10.0 mi WSW 4.6 mph - 0.01 in   Scattered Clouds
11:55 PM 56.1 °F 54.1 °F 93% 29.85 in 10.0 mi South 4.6 mph - 0.01 in   Light Drizzle